Location: Unspecified
(43.0000°N, 0.0000°E)
Time: 13:43:21
(UTC+00:00)

PicSat - Pass Details

Date: 14 August 2020
Orbit: 482 x 496 km, 97.4° (Epoch: 21 September)

Event Time Altitude Azimuth Distance (km) Brightness Sun altitude
Exits shadow 21:49:53 42° 2° (N) 721 ? -25.2°
Drops below altitude 10° 21:52:25 10° 352° (N) 1,705 ? -25.5°
Sets 21:54:31 0° 350° (N) 2,591 ? -25.7°
